Location: Meanaryar
(48.4161°N, 4.7315°W)
Time: 00:43:55
(UTC+00:00)

Iridium 4 Rocket - Pass Details

Date: 18 September 2020
Orbit: 584 x 905 km, 86.9° (Epoch: 29 October)

Event Time Altitude Azimuth Distance (km) Brightness Sun altitude
Rises 19:20:50 0° 190° (S) 3,061 6.6 -10.1°
Reaches altitude 10° 19:23:02 10° 193° (SSW) 2,195 5.9 -10.4°
Maximum altitude 19:27:55 65° 276° (W) 844 4.0 -11.2°
Drops below altitude 10° 19:33:19 10° 358° (N) 2,423 6.3 -12.1°
Sets 19:35:50 0° 2° (N) 3,406 7.1 -12.5°
